Back to catalog

COSMOS 2509

AliveNavigationPO
NORAD 40922·PAYLOAD·🇷🇺 Russia

Launched Sep 23, 2015 from Plesetsk Cosmodrome

Loading…

Next Passes (next 24 hours)

TLE

FreshSource: Space-Track

Epoch: Sep 14, 2026, 15:21 UTC

1 40922U 15050C   26257.63990762 -.00000051  00000-0 -44043-3 0  9998
2 40922  82.4923  22.5431 0014448 202.3861 157.6589 12.42886240497993

Track COSMOS 2509 in real time with AllMySat

Download on the App Store